Wetbulb
46.05 40.97 38.10 41.90 42.14 44.11 42.29 39.41 38.61 41.95 45.29 42.70 41.21 42.41 46.32 50.36 49.79 49.24 49.28 50.23 50.82 51.52 53.28 54.61 55.59 56.39 56.85 57.13 55.80 54.10 53.65 57.82 64.99 66.68 66.22 66.95 67.47 67.13 66.82 67.82 68.29 68.53 69.53 68.77
42.61 38.29 45.13 46.92 46.60 44.91 42.45 39.83 39.21 42.44 45.81 43.51 42.16 42.88 47.50 48.98 48.59 49.50 49.27 49.96 50.78 50.71 51.82 53.29 54.15 55.02 55.46 55.48 56.49 57.25 55.93 54.54 61.98 66.19 66.91 66.97 67.04 67.44 68.12 68.45 68.78 68.96 69.37 68.69
39.44 43.77 48.38 47.18 44.10 43.36 41.16 39.77 39.78 39.35 43.30 43.58 41.92 39.64 44.52 49.09 49.72 50.18 50.46 51.02 51.25 50.63 50.47 51.39 52.68 53.05 53.70 54.42 55.49 56.52 57.71 57.41 55.86 63.51 64.39 62.26 61.38 63.32 64.71 67.71 68.86 70.09 69.60 69.46
42.13 47.21 46.23 44.85 44.43 43.91 37.61 44.45 43.46 42.25 38.76 33.72 41.90 31.03 41.41 44.90 45.80 47.96 48.74 49.74 49.73 50.20 50.79 51.40 51.77 52.22 53.25 54.32 56.16 55.69 56.29 57.57 57.79 57.16 63.80 62.57 60.23 59.37 62.74 66.00 67.74 69.06 69.62 69.65
41.16 43.20 44.20 43.59 44.35 45.53 41.05 45.28 42.80 43.51 38.85 34.93 38.42 32.85 37.44 44.51 42.82 44.83 47.15 49.21 49.28 49.92 50.54 50.78 51.24 52.16 53.25 54.86 55.53 56.38 55.65 55.79 57.73 56.75 61.93 64.40 62.68 61.73 61.32 63.41 64.63 68.36 69.40 69.22
42.61 47.23 46.21 44.92 46.67 46.56 46.84 43.07 41.57 40.13 35.46 27.78 36.21 33.86 32.70 40.42 42.49 45.82 47.58 48.06 49.38 49.58 50.11 51.06 51.99 52.47 52.72 53.93 54.29 54.94 55.81 55.17 55.11 57.49 57.89 64.29 64.42 63.74 63.65 64.80 66.28 67.78 66.65 65.80
40.63 42.20 45.27 46.47 41.46 43.84 42.50 37.31 27.83 28.44 26.05 26.91 36.59 33.83 35.63 45.27 47.52 47.17 46.11 48.11 49.10 49.19 49.20 49.90 50.10 50.82 51.95 52.50 53.55 54.68 55.76 55.53 55.42 55.48 57.56 61.31 64.63 65.64 65.35 65.61 66.79 66.89 64.05 64.90
32.92 32.01 41.36 45.28 41.40 38.40 39.66 38.07 30.85 25.74 23.84 29.38 37.97 31.96 38.51 47.26 48.44 48.70 48.16 47.34 48.71 49.01 49.41 49.57 50.48 51.71 52.46 52.98 53.50 54.37 54.79 55.33 56.11 54.65 56.08 59.23 64.60 65.25 66.24 66.12 66.57 66.37 67.29 66.51
32.66 35.32 43.89 45.24 44.42 43.03 40.27 37.06 42.65 30.56 32.71 25.42 32.74 37.83 43.40 45.24 45.63 47.08 47.29 47.52 47.38 48.73 49.01 49.40 51.48 52.09 52.87 53.61 54.05 54.66 54.82 56.20 56.36 54.63 56.13 57.98 65.01 65.21 66.24 65.81 66.39 66.41 66.68 67.47
37.35 31.15 41.92 43.50 45.02 46.78 43.55 45.56 35.25 33.34 19.41 23.43 30.77 33.89 34.41 40.45 41.68 44.62 45.33 45.42 47.05 48.32 48.94 50.27 51.12 51.97 53.57 54.54 54.92 55.40 56.45 56.18 55.31 54.25 55.47 57.56 64.64 65.87 66.60 66.12 65.85 66.05 66.32 66.60
37.25 34.32 36.18 40.06 39.11 39.44 40.10 39.43 39.13 37.57 31.32 26.89 28.89 32.41 43.05 40.87 42.66 43.52 44.56 45.76 46.37 47.66 49.31 50.50 51.03 52.53 53.39 54.89 55.08 57.10 55.66 54.64 52.84 53.64 54.15 56.55 61.64 65.06 65.77 65.96 65.78 65.98 66.41 66.31
40.09 34.17 30.66 35.51 43.68 47.10 44.70 40.54 39.18 31.89 30.98 33.11 35.40 34.34 44.37 43.42 43.82 44.43 45.09 46.20 47.21 48.30 49.17 50.55 50.95 51.93 52.09 53.90 55.35 56.75 56.50 55.23 54.92 56.47 55.16 56.40 61.84 64.40 64.57 65.22 65.31 65.83 66.03 66.80
39.39 32.62 29.42 32.70 37.71 44.28 40.03 41.89 39.13 37.89 36.64 33.65 32.50 30.37 45.11 44.70 44.25 44.98 45.02 45.74 47.69 48.23 49.09 49.91 50.74 50.81 51.54 52.67 54.64 55.81 56.18 55.19 54.88 55.63 54.78 56.70 60.66 62.11 62.81 64.25 64.98 65.21 66.24 64.71
45.65 36.19 33.54 28.64 34.32 38.58 37.32 40.52 42.38 38.50 34.12 36.29 35.50 35.93 40.90 42.28 42.64 43.74 45.00 46.18 47.34 47.80 48.21 49.12 49.95 50.45 51.07 52.34 53.23 55.79 55.39 56.44 55.71 54.62 57.61 56.50 57.75 59.85 60.80 62.66 62.60 63.99 63.73 60.97
41.43 35.33 37.63 39.11 41.14 41.69 41.11 41.14 41.81 41.17 39.16 33.95 36.43 37.67 40.23 42.00 43.06 43.86 45.43 46.18 46.31 46.94 47.14 48.18 49.37 50.03 50.55 51.10 52.44 54.50 54.74 55.29 56.39 55.31 57.91 58.45 58.80 60.43 60.89 61.45 60.39 60.21 58.00 55.65
40.74 34.42 36.77 36.39 41.41 41.55 40.08 42.74 43.62 42.66 41.88 40.17 39.80 38.53 43.75 44.58 44.70 44.99 45.08 45.35 45.53 46.33 46.68 47.38 49.01 49.99 49.72 49.75 50.77 51.94 53.46 53.72 55.69 55.93 56.39 58.78 58.75 57.63 55.63 54.20 53.34 55.38 53.60 52.12
38.17 36.06 34.15 31.89 39.23 39.25 35.82 42.32 43.20 42.02 42.22 41.12 35.09 39.11 42.03 42.55 43.29 43.95 44.51 44.67 44.91 45.59 46.95 47.30 48.18 49.32 49.31 48.69 49.31 49.65 51.67 52.86 53.89 56.15 54.42 54.22 54.40 54.32 52.73 51.82 50.36 50.39 50.19 49.83
38.49 38.63 36.17 32.04 35.54 28.82 40.73 47.39 46.83 44.40 44.60 42.71 41.96 42.06 42.96 42.93 43.54 45.59 45.28 44.32 44.57 45.30 46.09 46.70 47.75 49.14 48.29 48.11 48.67 49.07 50.64 50.94 52.16 52.78 52.37 51.42 51.52 51.56 51.12 49.96 48.55 47.63 47.65 46.87
42.88 38.41 36.00 31.62 30.55 37.29 42.54 43.17 43.25 40.38 40.25 43.38 41.54 42.72 44.36 44.34 43.89 42.60 46.20 45.40 45.13 44.50 45.30 46.14 47.13 48.94 47.00 46.46 47.41 47.52 48.51 49.47 49.88 50.95 50.79 50.97 50.73 49.46 48.56 46.95 46.55 46.75 46.35 46.15
43.81 41.80 38.43 34.65 29.92 23.73 38.96 45.31 48.17 45.29 34.35 43.12 43.39 42.88 42.35 42.56 38.71 40.26 45.93 45.56 44.74 44.33 45.12 45.16 47.13 46.82 45.24 45.42 46.32 46.07 46.57 47.58 47.87 47.99 49.44 49.23 48.59 47.34 46.19 46.00 45.72 46.48 46.08 44.69
37.27 38.31 36.21 33.33 31.74 36.22 44.07 47.27 48.54 33.30 34.08 43.37 44.52 43.32 42.70 40.68 42.27 46.70 45.11 43.40 43.51 43.99 44.47 45.46 47.18 44.16 43.84 45.08 45.30 44.75 45.47 45.72 47.09 46.70 46.60 46.48 46.55 45.87 45.33 45.06 44.80 44.30 43.78 43.47
35.17 32.72 32.27 33.05 30.50 28.25 46.91 45.00 37.16 40.32 43.75 44.58 44.48 43.94 43.50 44.02 46.39 45.39 44.61 43.79 43.34 44.71 44.46 44.48 44.80 42.96 43.31 44.13 44.46 43.91 43.93 46.93 47.18 46.50 45.56 44.95 45.19 45.62 44.96 43.58 42.77 42.57 41.76 40.80
32.66 36.67 33.67 35.62 34.65 41.20 43.09 41.73 44.32 45.13 44.00 44.87 44.67 45.79 45.23 44.35 46.02 44.47 43.35 43.45 42.98 43.19 43.86 44.78 42.95 41.93 42.29 43.26 43.93 43.23 44.81 45.74 44.53 43.81 43.36 43.40 43.82 43.92 43.58 42.29 41.23 40.54 40.64 40.00
37.88 39.91 34.83 36.09 38.64 41.31 43.02 45.00 46.44 46.31 45.41 46.51 46.93 46.65 46.31 44.28 45.87 43.08 42.93 42.11 41.89 41.56 42.93 44.82 42.28 40.37 40.35 42.33 43.29 44.41 45.59 45.53 44.44 42.67 42.09 42.31 41.83 41.93 42.47 42.71 42.32 40.72 39.17 38.03
37.72 38.79 36.02 35.83 38.83 42.31 43.92 44.51 45.53 47.53 48.42 47.89 47.29 47.95 46.58 47.50 45.85 44.46 42.59 42.14 40.71 40.62 42.46 42.67 40.61 39.89 40.27 42.15 43.19 44.90 45.77 45.12 43.47 42.63 41.64 40.22 39.62 38.74 38.47 39.29 40.09 38.70 38.32 38.34
38.31 36.47 34.01 33.19 40.11 39.43 41.16 44.44 47.55 45.30 45.86 46.95 46.46 48.28 48.10 48.64 46.81 44.72 42.34 41.04 39.65 39.61 43.34 41.31 40.12 40.32 40.96 41.89 42.62 44.04 44.06 43.09 41.40 40.29 39.68 39.04 38.74 38.46 38.01 36.12 35.39 36.84 37.22 36.90
MSLP
1009.41 1010.49 1010.74 1010.37 1010.77 1010.52 1010.64 1010.28 1010.01 1009.17 1008.53 1008.54 1008.47 1008.24 1008.04 1007.79 1007.90 1008.24 1008.38 1008.61 1008.70 1008.24 1007.69 1006.89 1006.37 1005.77 1005.18 1004.72 1004.59 1004.35 1004.27 1003.62 1003.90 1004.23 1004.63 1005.03 1005.51 1005.54 1005.76 1005.86 1005.90 1006.16 1006.14 1006.28
1010.10 1010.22 1009.66 1009.69 1009.37 1009.52 1009.66 1009.90 1009.84 1009.25 1008.57 1008.52 1008.61 1008.84 1008.92 1008.83 1009.37 1009.62 1009.71 1009.50 1009.15 1008.39 1007.57 1006.96 1006.48 1006.14 1005.91 1005.41 1004.61 1004.10 1004.00 1003.88 1003.53 1003.23 1003.46 1003.57 1004.07 1004.59 1005.07 1005.54 1005.93 1005.97 1006.07 1005.96
1010.44 1009.68 1009.02 1009.01 1008.89 1009.13 1009.43 1009.71 1009.72 1009.65 1009.05 1008.88 1009.10 1009.54 1009.69 1009.86 1010.02 1009.97 1009.89 1009.93 1009.36 1009.16 1008.47 1007.68 1007.09 1006.74 1006.17 1005.68 1004.99 1004.25 1003.67 1003.44 1003.29 1002.81 1002.83 1003.31 1003.70 1004.12 1004.50 1004.83 1005.23 1005.67 1005.82 1005.67
1010.05 1008.99 1008.97 1008.79 1008.81 1008.88 1009.31 1009.33 1009.70 1009.96 1010.12 1010.27 1009.87 1010.75 1010.53 1010.44 1010.22 1010.39 1010.44 1010.16 1009.74 1009.32 1008.83 1008.66 1008.04 1007.33 1006.69 1005.80 1004.81 1004.37 1003.77 1003.36 1003.05 1002.79 1002.27 1002.23 1002.95 1003.46 1003.47 1003.44 1004.01 1004.85 1005.21 1005.48
1010.45 1009.46 1008.56 1008.69 1008.85 1008.89 1009.39 1009.41 1010.10 1010.40 1010.79 1011.08 1011.09 1011.59 1011.19 1010.93 1010.90 1010.82 1010.71 1010.26 1009.80 1009.51 1009.05 1008.31 1007.53 1006.89 1006.34 1005.55 1004.76 1004.01 1003.36 1002.97 1002.75 1002.20 1002.19 1001.56 1001.67 1002.02 1002.28 1002.84 1003.19 1003.67 1004.31 1004.70
1010.55 1009.71 1009.22 1009.37 1009.02 1009.02 1009.46 1010.20 1010.89 1011.49 1012.20 1012.65 1012.39 1012.35 1012.21 1011.74 1011.67 1011.23 1010.92 1010.47 1009.99 1009.36 1008.73 1007.93 1007.37 1006.86 1006.10 1005.26 1004.61 1003.69 1002.84 1002.15 1002.00 1001.72 1001.34 1001.17 1000.64 1000.99 1001.75 1002.19 1002.57 1002.95 1003.71 1004.07
1011.25 1010.43 1010.07 1009.70 1009.92 1009.60 1010.33 1011.74 1013.49 1014.08 1014.42 1014.18 1013.08 1013.06 1012.54 1011.97 1011.55 1011.30 1010.78 1010.41 1009.91 1009.47 1008.95 1007.95 1007.17 1006.22 1005.23 1004.39 1003.76 1002.97 1002.27 1001.48 1001.19 1001.07 1000.58 1000.25 1000.03 1000.01 1000.30 1001.00 1001.54 1002.11 1003.32 1003.49
1013.06 1011.69 1011.02 1010.77 1010.95 1011.00 1011.21 1012.46 1014.55 1015.75 1016.51 1015.33 1013.52 1012.99 1012.46 1011.59 1011.31 1011.02 1010.88 1010.75 1009.96 1009.23 1008.72 1007.95 1007.27 1006.23 1005.16 1003.99 1002.98 1002.19 1001.39 1000.52 1000.25 999.92 999.44 999.15 999.28 999.07 999.42 999.94 1000.54 1001.06 1002.09 1002.75
1013.60 1012.68 1011.75 1011.27 1010.94 1011.12 1011.51 1013.09 1014.09 1015.83 1016.94 1016.71 1014.56 1013.08 1012.36 1011.50 1011.09 1010.82 1010.65 1010.25 1009.93 1009.37 1008.63 1007.78 1006.81 1005.99 1004.97 1003.79 1002.71 1001.82 1000.55 998.91 998.53 998.62 998.03 997.97 998.21 998.17 998.71 999.16 999.59 1000.29 1001.30 1002.26
1013.86 1013.69 1012.59 1011.85 1011.30 1011.58 1011.85 1013.04 1014.44 1016.19 1017.40 1017.13 1015.34 1013.80 1012.20 1011.73 1011.71 1011.35 1010.82 1010.57 1010.04 1009.15 1008.08 1006.90 1006.15 1005.37 1004.39 1003.15 1002.04 1000.85 999.75 998.19 997.57 997.59 997.19 997.08 997.15 997.54 997.94 998.52 999.17 999.64 1000.47 1001.55
1013.93 1014.62 1013.67 1013.18 1012.83 1012.43 1012.57 1013.09 1014.33 1015.63 1016.93 1017.11 1016.06 1013.81 1012.32 1012.11 1011.87 1011.43 1011.03 1010.75 1009.84 1008.77 1007.82 1007.02 1006.47 1005.52 1004.52 1003.17 1001.86 1000.63 999.49 998.10 997.55 997.23 996.61 996.27 996.49 996.85 997.25 997.97 998.74 999.26 1000.02 1000.99
1014.06 1014.91 1015.06 1013.88 1012.98 1012.20 1012.39 1013.02 1013.91 1015.62 1016.50 1016.47 1015.95 1013.85 1012.19 1012.13 1011.87 1011.47 1011.15 1010.79 1009.70 1008.80 1008.04 1007.24 1006.25 1005.39 1004.43 1003.03 1001.58 1000.40 999.65 998.81 998.08 996.50 995.43 995.61 995.56 996.10 996.77 997.48 998.07 998.65 999.73 1000.64
1014.13 1015.34 1015.82 1014.61 1013.37 1013.00 1012.65 1012.62 1013.19 1014.05 1014.90 1015.58 1015.59 1013.53 1012.04 1011.74 1011.77 1011.42 1011.36 1010.69 1009.38 1008.53 1007.56 1006.74 1005.90 1004.97 1004.23 1003.11 1001.55 1000.41 999.67 998.99 998.38 997.09 995.45 995.40 995.91 995.91 996.41 997.22 997.68 998.15 999.30 1000.64
1014.22 1015.59 1016.24 1016.11 1014.99 1014.06 1013.21 1012.44 1012.49 1013.17 1014.50 1014.68 1014.42 1013.05 1012.23 1011.81 1011.60 1011.20 1011.01 1010.25 1009.26 1008.40 1007.80 1006.98 1006.09 1005.25 1004.39 1003.53 1002.38 1000.92 999.88 998.88 997.98 996.86 994.94 995.04 995.55 996.01 996.37 997.10 997.84 998.18 999.81 1001.19
1014.93 1015.85 1015.67 1015.16 1014.39 1013.65 1013.02 1012.33 1012.26 1012.63 1013.10 1013.91 1013.48 1013.00 1012.07 1011.67 1011.41 1010.97 1010.73 1010.01 1009.43 1008.53 1007.72 1006.87 1006.13 1005.32 1004.45 1003.53 1002.49 1001.33 1000.13 999.15 997.66 996.39 995.63 995.61 995.49 995.89 996.79 997.45 998.56 999.24 1000.40 1002.62
1015.45 1015.70 1015.58 1015.00 1013.63 1013.11 1012.49 1011.89 1012.11 1012.08 1012.43 1012.72 1012.77 1012.36 1011.38 1011.05 1010.99 1010.91 1010.58 1010.28 1009.67 1008.80 1008.23 1007.23 1006.34 1005.63 1004.84 1003.89 1002.88 1001.67 1000.41 999.22 998.05 996.63 996.17 996.00 995.96 996.51 997.92 998.16 999.42 1000.59 1001.60 1002.74
1015.91 1015.78 1015.92 1015.13 1013.65 1012.89 1012.89 1012.55 1012.39 1012.36 1012.69 1012.62 1012.44 1011.90 1011.27 1011.07 1010.92 1010.63 1010.37 1010.26 1009.94 1009.35 1008.62 1007.77 1006.73 1005.89 1005.22 1004.25 1003.22 1001.89 1000.57 999.19 997.27 995.75 996.63 996.95 996.77 997.34 998.85 999.37 1000.43 1002.29 1002.89 1003.21
1014.97 1015.54 1015.77 1015.35 1014.34 1013.38 1012.73 1012.22 1011.70 1011.73 1011.81 1011.91 1011.81 1011.37 1011.07 1010.77 1010.43 1010.24 1009.95 1010.26 1010.17 1009.70 1008.91 1008.26 1007.15 1006.11 1005.54 1004.67 1003.33 1002.38 1001.19 999.72 998.07 997.32 997.59 998.00 998.09 999.14 1000.05 1000.57 1001.40 1002.77 1004.31 1004.36
1013.72 1014.98 1015.56 1015.48 1014.98 1013.50 1012.38 1011.72 1011.35 1011.11 1011.44 1011.27 1011.31 1011.08 1010.75 1010.31 1010.09 1009.97 1009.97 1010.22 1010.23 1009.91 1009.40 1008.84 1007.78 1006.86 1006.05 1005.25 1004.01 1002.99 1001.97 1000.99 999.81 998.63 999.17 998.97 999.28 1000.25 1001.06 1001.73 1002.70 1003.40 1004.33 1006.52
1013.38 1014.39 1015.21 1015.32 1014.99 1013.80 1012.25 1011.11 1010.49 1010.49 1011.06 1010.81 1010.78 1010.76 1010.53 1010.21 1010.25 1009.89 1009.95 1010.24 1010.18 1009.83 1009.36 1008.85 1007.94 1007.33 1006.53 1005.65 1004.77 1003.83 1002.98 1002.33 1001.51 1000.80 1000.00 1000.70 1000.98 1001.58 1002.57 1003.32 1003.94 1005.39 1005.85 1007.37
1013.81 1014.51 1014.80 1014.80 1014.42 1012.94 1011.67 1010.80 1010.27 1010.76 1011.28 1010.32 1010.27 1010.19 1010.15 1010.35 1010.20 1009.81 1010.01 1010.21 1010.14 1009.93 1009.41 1008.87 1008.23 1007.90 1007.20 1006.25 1005.37 1004.56 1004.07 1003.62 1003.29 1002.31 1001.89 1002.32 1002.75 1003.05 1003.45 1004.51 1005.75 1006.64 1007.93 1008.98
1014.00 1014.38 1014.53 1014.17 1013.70 1012.77 1011.38 1010.81 1010.67 1010.39 1009.99 1009.81 1009.71 1009.65 1009.68 1009.55 1009.51 1009.70 1010.02 1010.15 1010.15 1009.89 1009.42 1009.01 1008.65 1008.17 1007.54 1006.89 1006.13 1005.29 1005.02 1004.77 1004.45 1004.02 1003.61 1003.77 1004.28 1004.38 1004.60 1004.89 1006.86 1008.65 1009.21 1010.52
1014.29 1014.35 1014.52 1014.14 1013.19 1012.33 1011.30 1010.74 1009.91 1009.63 1009.59 1009.27 1009.19 1009.12 1008.99 1009.19 1009.33 1009.67 1010.09 1010.35 1010.35 1010.21 1009.90 1009.40 1009.01 1008.48 1007.87 1007.34 1006.66 1006.29 1005.99 1006.01 1005.76 1005.47 1005.26 1005.34 1005.69 1005.92 1006.71 1007.05 1008.12 1009.90 1011.25 1011.97
1014.79 1014.37 1014.41 1014.07 1012.88 1012.06 1011.30 1010.34 1009.92 1009.37 1009.07 1008.73 1008.65 1008.61 1008.63 1009.09 1009.31 1009.81 1010.23 1010.54 1010.72 1010.44 1010.21 1009.83 1009.56 1009.19 1008.58 1008.15 1007.66 1007.07 1006.82 1006.97 1006.97 1006.86 1006.69 1007.05 1007.57 1008.25 1008.94 1008.95 1010.05 1011.05 1012.45 1012.90
1015.48 1014.77 1014.32 1013.79 1013.01 1012.17 1011.07 1010.41 1009.81 1009.21 1008.84 1008.51 1008.35 1008.26 1008.43 1008.96 1009.40 1009.90 1010.47 1010.77 1011.16 1010.93 1010.58 1010.49 1010.28 1009.80 1009.34 1008.97 1008.45 1007.74 1007.78 1007.94 1008.18 1008.20 1008.23 1008.79 1009.35 1009.60 1010.13 1011.20 1012.25 1012.81 1013.49 1013.62
1014.42 1014.02 1013.99 1013.56 1012.91 1012.86 1011.70 1010.71 1009.93 1009.43 1009.09 1008.57 1008.29 1008.13 1008.16 1008.66 1009.36 1010.11 1010.72 1010.96 1011.26 1011.25 1011.02 1010.97 1010.83 1010.49 1010.14 1009.71 1009.30 1008.95 1008.74 1009.11 1009.53 1010.03 1010.04 1010.00 1010.48 1011.22 1011.69 1012.12 1013.09 1013.58 1013.93 1014.51
Wind_Speed
3 5 6 13 10 9 7 3 5 7 6 2 4 7 16 17 14 13 12 12 11 12 11 14 15 13 10 9 6 9 6 9 5 3 4 6 5 5 6 7 10 10 12 12
7 3 8 7 10 5 3 4 6 6 7 5 8 10 7 10 7 11 11 12 14 17 17 19 19 16 16 10 10 9 9 8 7 5 4 4 6 4 5 2 5 9 13 10
3 6 9 7 3 5 3 2 5 6 8 5 3 5 5 4 9 9 11 9 12 13 16 19 20 19 19 17 14 9 10 9 9 9 3 3 4 4 3 3 2 7 9 12
4 11 9 7 0 4 2 6 5 10 4 5 4 5 2 1 9 10 9 10 13 15 13 12 15 16 16 18 11 9 9 8 8 10 8 8 8 8 6 10 13 9 6 10
8 6 15 2 1 1 6 7 5 7 5 3 6 5 4 3 7 7 9 13 12 12 12 18 18 17 17 16 15 13 11 10 8 9 14 11 11 11 9 8 12 13 10 5
6 6 7 4 5 3 4 5 6 5 4 4 3 4 5 3 3 6 8 10 12 13 15 17 16 16 16 15 16 15 15 13 8 9 14 16 17 12 9 8 10 8 8 8
7 6 5 12 9 8 8 8 5 7 7 5 1 4 5 2 2 4 9 15 15 11 14 17 18 18 20 20 18 16 16 16 10 11 14 17 18 15 16 13 11 11 9 8
5 10 7 15 2 6 3 7 5 2 3 6 8 3 4 5 4 6 7 8 13 15 14 15 16 18 20 22 23 20 21 20 14 13 17 16 17 11 11 12 9 10 10 12
3 6 10 5 9 2 3 5 4 5 3 3 4 3 5 3 6 11 11 13 15 16 15 15 18 17 18 19 20 20 20 24 17 17 15 15 15 16 12 12 11 8 10 12
1 6 3 9 6 9 8 2 4 4 2 5 6 5 6 6 9 10 10 11 15 15 16 17 18 21 20 19 17 19 20 17 15 15 12 10 13 14 11 10 12 11 11 15
2 3 8 5 4 2 4 4 1 4 5 3 4 6 3 2 8 10 9 10 13 15 15 15 16 17 20 19 18 17 15 12 7 13 14 13 13 13 11 11 12 12 13 15
2 4 4 8 8 2 4 2 3 5 4 4 2 7 1 5 7 7 8 11 14 13 14 12 14 16 19 19 20 18 13 12 10 8 12 13 14 12 11 11 12 13 15 15
1 2 4 11 8 2 3 11 5 4 3 3 2 8 3 7 8 8 6 11 14 15 15 15 17 16 17 19 22 19 19 11 10 9 4 5 4 6 8 9 10 12 15 18
6 3 7 6 8 6 10 15 5 3 3 4 6 8 8 10 9 9 7 10 14 15 14 14 15 16 15 16 17 18 19 14 9 7 5 3 3 4 5 7 7 11 11 16
4 4 5 8 10 12 13 14 10 3 3 5 5 5 8 9 9 8 7 9 12 16 17 17 16 16 17 17 17 17 16 16 14 5 4 2 5 10 11 9 13 17 19 12
3 4 2 7 9 6 12 4 6 3 2 2 6 7 8 8 6 7 9 8 11 15 16 17 16 17 17 18 17 17 15 15 10 1 6 5 9 16 14 17 16 14 18 20
2 3 1 6 7 5 4 7 5 3 3 3 4 9 5 7 10 7 7 7 9 13 14 16 15 15 15 16 17 17 17 15 16 9 11 9 11 19 17 20 21 16 14 20
5 4 3 5 5 3 5 6 3 5 5 7 7 8 7 8 8 8 6 5 9 11 13 14 14 14 15 15 16 15 13 14 12 11 12 13 15 16 17 18 21 23 12 19
15 4 3 1 2 7 1 6 3 3 5 3 5 7 6 8 6 7 3 3 7 8 10 9 12 11 14 15 15 13 13 13 11 11 9 11 16 17 17 19 17 19 22 17
7 2 4 1 2 4 6 6 6 3 4 3 2 6 6 7 9 5 3 5 7 9 8 10 12 11 12 14 12 11 12 12 10 12 11 11 14 18 20 19 19 17 20 20
2 2 7 3 5 6 5 5 1 5 8 2 3 5 5 4 6 5 4 3 5 6 9 11 8 10 12 12 11 11 11 12 9 12 13 13 13 17 22 21 18 19 18 19
3 3 4 0 1 3 3 5 2 7 3 2 3 4 5 6 5 1 3 5 7 9 10 12 8 9 11 11 8 10 11 9 7 11 14 13 13 12 16 24 19 18 18 17
1 3 3 6 6 6 7 3 4 4 4 4 4 6 4 5 3 2 3 5 6 7 8 9 8 10 10 11 10 9 10 9 10 13 15 15 15 15 15 20 21 15 13 11
7 2 1 3 4 11 11 6 5 4 4 6 5 5 4 1 3 1 2 4 6 6 8 8 9 9 10 10 9 8 9 8 10 13 16 14 15 16 15 14 13 13 9 10
6 4 3 7 7 8 6 6 5 7 7 8 6 5 2 7 4 3 1 4 5 5 7 7 8 8 9 9 9 9 9 9 10 11 13 14 11 13 14 13 9 10 9 7
5 6 5 5 6 3 10 11 11 6 5 8 5 7 1 7 6 4 3 2 4 5 6 6 6 7 8 9 9 10 11 11 11 10 10 11 11 10 10 12 13 20 18 19
Wind_Direction
305 103 217 241 200 231 230 247 285 284 294 326 287 304 4 49 48 46 44 37 13 4 333 356 347 338 341 336 299 266 238 218 177 156 172 188 196 207 216 208 210 208 209 201
354 236 259 276 230 232 328 313 310 288 308 343 332 317 100 76 62 59 39 17 0 350 354 346 340 340 334 307 310 311 267 242 226 187 195 173 166 180 179 155 253 230 221 193
248 255 327 345 45 66 352 288 280 270 301 293 299 310 180 73 63 45 30 1 356 350 342 339 337 330 327 320 308 286 282 263 234 216 160 72 54 54 172 186 234 253 228 207
305 308 332 290 196 123 349 267 298 303 318 273 111 269 6 106 48 28 355 348 345 334 329 323 320 314 311 308 304 302 287 271 259 236 209 174 182 187 192 197 208 212 205 228
278 294 308 330 167 161 230 278 289 260 265 62 339 75 250 11 10 357 345 338 334 326 319 324 323 315 307 308 306 306 293 290 262 236 234 207 193 200 192 204 205 202 193 188
251 279 35 39 327 346 301 8 6 13 48 38 218 108 312 11 337 332 307 314 333 327 321 317 314 310 305 306 301 295 290 276 277 257 242 219 203 196 189 186 205 202 204 202
329 334 336 44 3 334 53 50 356 2 6 236 275 36 244 249 305 285 308 327 326 322 318 319 320 321 318 314 306 299 290 277 266 266 254 229 215 200 201 187 197 189 187 203
1 330 17 339 256 234 288 124 140 264 290 288 320 178 216 195 227 265 269 289 330 327 319 321 322 320 319 314 309 301 294 279 263 251 249 234 216 201 206 190 195 205 181 194
344 276 324 314 336 336 324 47 149 100 29 36 275 338 289 166 342 340 333 339 328 321 325 329 327 325 316 307 297 295 290 283 256 247 241 228 217 206 195 184 184 188 160 182
268 306 298 320 7 12 96 190 28 23 32 300 309 298 248 352 311 310 317 326 322 315 325 341 338 330 322 311 314 310 305 276 241 242 237 216 209 206 190 173 181 172 158 170
111 128 292 1 35 138 14 7 30 126 137 188 285 260 185 290 293 311 306 318 316 318 328 339 330 325 318 314 319 325 327 310 262 251 245 217 209 208 190 173 175 171 164 165
235 145 296 270 265 127 155 251 172 125 249 232 213 271 282 265 296 303 314 302 309 320 321 327 328 330 327 324 326 326 328 315 317 319 242 221 203 194 175 176 181 164 167 162
205 15 351 342 354 286 339 321 250 153 103 186 242 264 232 330 321 311 303 297 321 325 328 336 334 342 333 333 328 326 328 313 295 302 56 31 248 168 169 183 180 175 162 152
95 146 162 202 234 266 304 305 324 126 115 203 236 282 296 311 314 312 298 300 322 326 328 329 333 336 338 331 324 317 325 319 292 292 10 49 98 165 163 177 175 125 131 142
108 216 229 244 261 274 276 286 310 257 186 157 280 275 282 297 297 291 291 296 319 325 336 334 336 336 336 333 333 329 327 325 310 324 54 108 151 115 106 102 117 132 122 113
343 263 260 292 268 264 302 278 355 292 282 357 319 294 258 289 301 292 295 302 321 329 332 324 332 333 338 332 334 327 323 324 303 124 42 92 123 101 100 95 91 105 122 119
264 206 88 264 302 330 30 342 35 36 8 257 302 265 309 298 313 277 286 307 314 319 325 324 328 330 338 332 328 328 331 331 325 130 88 75 95 107 108 108 98 96 113 106
216 178 169 268 349 357 201 236 222 204 216 258 282 288 302 290 286 267 269 292 307 312 325 333 326 330 340 334 331 331 340 341 350 51 89 96 100 102 108 108 111 102 93 97
201 151 260 193 190 271 213 299 300 283 253 242 267 318 288 295 326 303 279 293 294 300 315 326 315 337 337 338 334 341 353 351 10 43 59 97 106 103 103 100 103 109 109 100
152 159 159 113 217 255 237 266 280 83 265 256 31 303 297 329 346 284 333 302 311 312 331 332 327 344 343 338 340 353 0 6 21 49 63 88 96 103 101 104 96 99 98 103
127 197 212 210 222 274 254 263 37 69 243 278 242 288 301 321 256 290 330 325 318 313 331 339 350 354 343 341 345 5 9 14 29 66 65 76 91 103 102 99 99 99 97 104
187 197 229 77 177 307 315 310 333 226 247 246 265 279 291 287 305 187 3 340 330 340 344 348 6 355 344 349 354 16 16 11 45 72 80 78 89 99 105 101 93 100 104 105
1 163 238 167 223 237 251 249 280 188 191 236 234 259 263 297 280 359 338 342 324 347 347 350 6 354 353 356 2 21 12 55 72 79 84 81 79 85 94 106 103 95 94 110
326 22 246 6 292 323 319 314 260 261 275 267 253 234 272 187 197 183 360 331 329 352 359 3 7 1 354 355 358 17 39 58 78 86 85 83 88 94 96 92 95 105 119 120
206 330 276 275 292 308 309 308 282 286 282 285 295 235 261 159 213 171 76 342 358 3 3 38 15 360 358 356 3 24 45 67 75 84 91 90 82 81 86 81 88 106 99 108
195 214 165 237 278 253 276 299 294 305 318 303 268 258 234 162 177 153 125 34 32 23 26 48 19 15 8 8 23 44 61 71 87 93 96 92 91 87 90 100 94 61 82 80